Big Pine Key, Florida Weather Center

Moon Phase Calendar



Online Cameras

 


      

Current Conditions in Cudjoe Key
10/26/2020 10:38:35 PM

82°F
Feels Like 84
Clouds
Humidity
95%
Pressure
29.97"
Wind
19 mph (ESE)
Dew Point
80°F
UV Index
7/10 (High)
Visibility
6 mi

Hourly Forecast

Date & Time Mon, Oct 26
10:00 PM
Mon, Oct 26
11:00 PM
Tue, Oct 27
12:00 AM
Tue, Oct 27
1:00 AM
Tue, Oct 27
2:00 AM
Tue, Oct 27
3:00 AM
Tue, Oct 27
4:00 AM
Tue, Oct 27
5:00 AM
Tue, Oct 27
6:00 AM
Tue, Oct 27
7:00 AM
Tue, Oct 27
8:00 AM
Tue, Oct 27
9:00 AM
Tue, Oct 27
10:00 AM
Tue, Oct 27
11:00 AM
Tue, Oct 27
12:00 PM
Tue, Oct 27
1:00 PM
Tue, Oct 27
2:00 PM
Tue, Oct 27
3:00 PM
Tue, Oct 27
4:00 PM
Tue, Oct 27
5:00 PM
Tue, Oct 27
6:00 PM
Tue, Oct 27
7:00 PM
Tue, Oct 27
8:00 PM
Tue, Oct 27
9:00 PM
Tue, Oct 27
10:00 PM
Tue, Oct 27
11:00 PM
Wed, Oct 28
12:00 AM
Wed, Oct 28
1:00 AM
Wed, Oct 28
2:00 AM
Wed, Oct 28
3:00 AM
Wed, Oct 28
4:00 AM
Wed, Oct 28
5:00 AM
Wed, Oct 28
6:00 AM
Wed, Oct 28
7:00 AM
Wed, Oct 28
8:00 AM
Wed, Oct 28
9:00 AM
Wed, Oct 28
10:00 AM
Wed, Oct 28
11:00 AM
Wed, Oct 28
12:00 PM
Wed, Oct 28
1:00 PM
Wed, Oct 28
2:00 PM
Wed, Oct 28
3:00 PM
Wed, Oct 28
4:00 PM
Wed, Oct 28
5:00 PM
Wed, Oct 28
6:00 PM
Wed, Oct 28
7:00 PM
Wed, Oct 28
8:00 PM
Wed, Oct 28
9:00 PM
Condition
Rain

Clouds

Clouds

Clouds

Rain

Rain

Rain

Rain

Rain

Rain

Rain

Clouds

Clouds

Clouds

Clear

Clear

Rain

Clouds

Clear

Clear

Clear

Clear

Clear

Clouds

Clouds

Clouds

Clouds

Clouds

Clouds

Clouds

Clouds

Clouds

Rain

Clouds

Clouds

Clouds

Clouds

Clouds

Clouds

Clouds

Clouds

Clouds

Clouds

Clouds

Clouds

Clouds

Clouds

Clear
Temperature 82°F82°F82°F82°F82°F82°F82°F82°F82°F82°F82°F82°F82°F82°F82°F82°F82°F82°F82°F82°F82°F82°F82°F82°F82°F82°F82°F82°F82°F82°F82°F82°F82°F81°F81°F82°F81°F82°F82°F82°F82°F82°F82°F82°F82°F82°F82°F82°F
Feels Like 85°F83°F83°F83°F84°F84°F85°F85°F84°F83°F83°F83°F82°F83°F83°F84°F85°F85°F85°F85°F85°F85°F85°F85°F85°F84°F85°F86°F86°F86°F85°F84°F83°F82°F82°F81°F81°F81°F81°F81°F82°F82°F83°F83°F83°F85°F86°F86°F
Cloudiness 83%84%86%76%66%74%54%69%77%81%85%36%19%12%9%7%11%12%6%4%3%4%4%60%74%81%87%89%89%55%62%74%81%85%79%38%22%46%49%54%51%53%44%48%49%40%33%0%
Visibility 6 mi6 mi6 mi6 mi6 mi6 mi6 mi6 mi6 mi6 mi6 mi6 mi6 mi6 mi6 mi6 mi6 mi6 mi6 mi6 mi6 mi6 mi6 mi6 mi6 mi6 mi6 mi6 mi6 mi6 mi6 mi6 mi6 mi6 mi6 mi6 mi6 mi6 mi6 mi6 mi6 mi6 mi6 mi6 mi6 mi6 mi6 mi6 mi
Precipitation 96%80%80%80%100%53%50%55%55%59%55%4%0%0%1%0%24%28%32%20%20%20%20%8%8%4%0%8%11%21%22%18%34%8%8%0%0%0%0%0%0%0%0%0%0%0%0%0%
Humidity 95%87%83%81%82%82%83%82%82%81%81%81%82%83%83%84%85%85%85%85%86%87%86%86%86%86%86%86%86%86%86%86%85%84%83%83%82%82%82%82%82%82%82%83%82%83%85%85%
Dew Point 80°F78°F76°F76°F76°F76°F76°F76°F76°F76°F76°F76°F76°F76°F77°F77°F77°F78°F77°F77°F77°F77°F77°F77°F77°F77°F77°F77°F77°F77°F77°F77°F77°F76°F76°F76°F76°F76°F76°F76°F76°F76°F76°F76°F76°F76°F77°F77°F
Pressure 29.97"29.97"29.97"29.97"29.97"29.97"29.94"29.94"29.97"29.97"30"30"30.03"30.03"30.03"30"29.97"29.97"29.94"29.94"29.94"29.94"29.97"29.97"30"30"30"30"29.97"29.97"29.94"29.94"29.94"29.94"29.97"29.97"30"30"29.97"29.97"29.94"29.91"29.91"29.91"29.91"29.94"29.94"29.94"
Wind Speed 18.5 mph19 mph18.4 mph17.9 mph16.4 mph15.9 mph14.5 mph13.5 mph14.9 mph17 mph17.7 mph17.6 mph18.8 mph19 mph18.3 mph17 mph16.1 mph15.8 mph16.2 mph16.2 mph15.6 mph15.7 mph15.5 mph15.4 mph15.4 mph16 mph15.3 mph13.8 mph13.2 mph13.5 mph15.3 mph15.4 mph17.4 mph18.5 mph18.8 mph19.5 mph19.7 mph20.1 mph19.5 mph20 mph19 mph18.4 mph17.4 mph17.6 mph16.7 mph14 mph12.9 mph12.4 mph
Wind
Direction
125°
SE
122°
ESE
124°
SE
120°
ESE
120°
ESE
116°
ESE
114°
ESE
105°
ESE
97°
E
94°
E
95°
E
98°
E
98°
E
101°
E
102°
ESE
102°
ESE
107°
ESE
107°
ESE
103°
ESE
102°
ESE
105°
ESE
106°
ESE
104°
ESE
103°
ESE
103°
ESE
106°
ESE
107°
ESE
108°
ESE
111°
ESE
107°
ESE
106°
ESE
110°
ESE
108°
ESE
106°
ESE
102°
ESE
99°
E
100°
E
102°
ESE
104°
ESE
106°
ESE
110°
ESE
111°
ESE
107°
ESE
104°
ESE
109°
ESE
107°
ESE
101°
E
98°
E

Daily Forecast

Date High Low Precip. Humidity
Today
Oct 26

Rain
82 °F
81 °F
100%
82%
Tuesday
Oct 27

Rain
82 °F
82 °F
100%
85%
Wednesday
Oct 28

Rain
82 °F
81 °F
28%
82%
Thursday
Oct 29

Rain
82 °F
81 °F
40%
81%
Friday
Oct 30

Clear
81 °F
80 °F
8%
74%
Saturday
Oct 31

Rain
81 °F
80 °F
53%
75%
Sunday
Nov 1

Rain
81 °F
80 °F
100%
80%
Monday
Nov 2

Rain
81 °F
79 °F
99%
80%
Tuesday
Nov 3

Rain
80 °F
79 °F
65%
76%
Wednesday
Nov 4

Rain
79 °F
78 °F
65%
75%
Thursday
Nov 5

Clouds
79 °F
78 °F
25%
73%
Friday
Nov 6

Rain
79 °F
76 °F
33%
77%
Saturday
Nov 7

Rain
75 °F
73 °F
35%
72%
Sunday
Nov 8

Rain
75 °F
72 °F
24%
64%
Monday
Nov 9

Rain
74 °F
73 °F
45%
58%
Tuesday
Nov 10

Clear
74 °F
68 °F
10%
56%


Temperature 8-14 Day Outlook



Precipitation 8-14 Day Outlook




Quick Links
Big Pine Key, Florida News
Big Pine Key, Florida Photos
Big Pine Key, Florida Videos




About Us
Contact Us
Site Map
Search Site
Advertise With Us
   
BigPineKey.CoastalTown.com
THE BIG PINE KEY, FLORIDA WEBSITE

Copyright 2020, Coastal Town
Privacy    |    Legal